Location: Alvis C Story Elementary School
(33.0968°N, 96.6364°W)
Time: 04:48:16
(UTC+00:00)

Cosmos 2228 Rocket - Pass Details

Date: 03 July 2022
Orbit: 618 x 651 km, 82.5° (Epoch: 14 August)

Event Time Altitude Azimuth Distance (km) Brightness Sun altitude
Rises 10:29:17 0° 347° (NNW) 2,915 6.8 -10.2°
Reaches altitude 10° 10:31:34 10° 342° (NNW) 2,009 5.9 -9.8°
Maximum altitude 10:35:53 52° 267° (W) 791 3.3 -9.1°
Drops below altitude 10° 10:40:13 10° 191° (SSW) 2,016 5.3 -8.4°
Sets 10:42:30 0° 186° (S) 2,926 6.1 -8.0°
